Location: Foligno
(42.9600°N, 12.7050°E)
Time: 11:21:51
(UTC+02:00)

ISS - Pass Details

Date: 05 May 2021
Orbit: 417 x 422 km, 51.6° (Epoch: 15 May)

Event Time Altitude Azimuth Distance (km) Brightness Sun altitude
Exits shadow 03:34:10 31° 326° (NW) 758 -2.4 -21.7°
Maximum altitude 03:34:29 32° 338° (NNW) 746 -2.3 -21.7°
Drops below altitude 10° 03:37:34 10° 44° (NE) 1,506 0.2 -21.3°
Sets 03:39:49 0° 55° (NE) 2,373 1.4 -21.0°
